Theta_e
316 316 317 319 318 318 317 317 316 316 316 316 314 314 314 313 313 311 313 312 311 309 309 308 308 308 307 307 308 308 315 317 312 313 314 315 315 315 316 316 316 317 316 313 312 314 311 309 307 306 305 305 303 302 302 303 304 303 301 303 301 299 300 301 301 302 301 300 301 300 301 302 301 299 298 299 299 300 300 299 300 300 300 300 300
313 313 315 316 317 317 317 316 318 314 314 314 314 315 315 313 312 312 312 311 310 310 312 308 306 307 307 309 308 309 308 309 310 314 315 315 315 315 315 315 315 315 316 313 312 310 308 307 305 304 304 304 304 304 303 304 301 300 300 299 300 300 298 300 299 301 301 299 299 299 300 300 302 299 298 298 298 298 299 298 299 298 298 299 301
310 311 311 315 316 317 316 315 314 315 315 313 313 313 313 313 313 314 313 311 310 312 310 308 309 309 308 307 309 310 309 311 311 315 315 314 314 315 315 314 313 312 312 313 309 308 307 306 305 304 303 305 301 300 300 300 300 300 300 299 297 299 300 301 300 301 299 299 300 299 296 298 301 299 299 298 297 297 298 297 297 297 297 298 299
309 309 310 312 315 315 314 314 313 314 314 312 311 311 312 315 313 313 313 311 311 315 315 310 312 310 309 310 310 310 313 317 313 313 314 314 313 314 314 313 312 311 310 309 308 307 306 305 304 303 303 304 301 300 300 300 300 299 300 301 299 295 296 298 301 300 298 299 298 296 295 295 295 294 296 297 298 296 296 296 297 296 296 297 298
309 309 308 311 313 314 314 314 313 313 312 311 310 312 313 312 313 312 311 311 311 319 313 313 313 310 310 311 311 310 311 309 311 311 312 319 315 313 313 312 311 310 310 309 309 305 305 304 303 303 302 302 302 300 300 300 300 300 299 299 298 296 295 296 299 300 299 300 300 297 294 293 290 293 294 294 297 295 295 295 297 296 296 296 295
310 309 308 311 314 314 313 313 312 312 312 311 311 312 312 311 312 311 311 312 313 313 311 314 313 309 308 308 307 307 307 308 309 310 310 310 311 312 312 312 311 310 309 309 309 307 304 304 303 302 302 303 302 300 300 301 301 300 300 299 298 298 296 296 296 300 300 300 298 297 295 291 292 293 293 292 296 295 296 295 294 295 295 295 294
310 310 308 310 312 312 312 312 312 312 312 311 311 311 310 310 310 311 311 311 312 311 312 315 308 308 307 307 306 306 306 307 305 307 309 310 312 311 311 312 310 309 308 307 307 307 304 303 303 302 302 302 304 300 299 300 300 301 302 300 299 300 297 294 295 296 298 298 298 298 298 297 295 294 290 291 290 294 294 295 293 293 295 294 293
310 309 308 310 312 313 312 312 312 313 312 311 311 310 310 310 309 310 312 315 312 312 312 312 309 307 307 307 309 305 307 309 308 309 311 315 311 311 311 310 310 309 308 307 307 307 304 303 303 303 303 304 303 299 299 299 299 300 302 301 301 299 296 295 295 295 295 295 299 296 297 296 295 295 295 291 288 288 290 292 293 292 294 294 293
310 309 308 309 310 312 313 312 312 311 311 311 310 310 310 310 311 311 313 314 312 313 312 311 313 308 308 310 311 309 306 309 315 317 312 312 311 310 310 309 309 308 307 307 306 307 308 303 302 302 302 303 303 300 299 299 298 298 298 298 298 299 299 298 295 295 295 294 295 295 294 294 293 294 294 294 290 288 288 288 288 291 292 293 294
311 310 310 309 310 312 313 312 311 310 311 313 310 309 309 309 312 312 312 312 312 313 313 310 312 312 308 308 308 308 311 308 309 309 309 310 310 309 309 308 308 308 307 306 305 304 304 305 303 303 304 305 304 299 298 298 298 298 298 298 298 298 298 297 296 295 295 295 295 294 293 293 292 292 292 292 291 290 286 287 287 287 287 290 295
310 310 310 309 310 311 311 311 310 309 309 310 309 309 309 310 311 311 312 311 313 312 310 310 310 309 308 308 308 307 308 308 309 309 309 310 310 309 309 308 308 307 307 306 306 305 306 307 302 303 305 307 303 299 299 298 298 297 297 297 297 296 296 296 296 296 295 294 293 293 293 292 292 290 290 290 289 288 287 286 287 288 287 287 290
311 310 309 308 308 309 309 309 308 309 309 309 308 308 310 310 311 310 309 310 311 311 310 309 310 309 308 308 308 307 308 309 309 309 309 309 309 309 309 308 307 306 305 304 304 304 304 303 304 301 301 299 299 299 300 300 299 297 297 297 297 297 298 297 294 293 293 293 293 293 293 293 293 292 291 291 290 289 287 285 285 287 287 288 288
310 310 309 307 308 308 307 308 308 307 309 309 308 309 309 310 310 310 309 309 310 310 310 310 309 309 309 308 308 309 308 308 308 308 308 309 309 310 308 307 306 305 304 303 303 303 304 301 301 300 300 302 300 299 299 299 299 298 297 296 296 296 295 295 293 293 293 292 292 292 292 292 292 292 292 291 291 290 288 285 285 287 284 284 286
311 310 309 308 308 308 308 308 308 308 308 309 309 310 310 311 310 310 310 309 310 310 310 309 310 310 309 309 308 313 309 309 307 308 308 309 311 311 309 308 306 305 304 303 303 305 305 305 303 301 302 303 303 301 301 301 299 297 297 296 295 296 296 295 295 294 293 292 293 292 292 292 292 292 291 290 289 288 287 286 285 285 284 284 285
311 310 309 309 309 309 308 308 308 308 309 309 309 310 309 310 309 311 308 309 309 309 309 309 309 309 309 309 309 311 310 311 309 310 308 310 310 311 310 309 308 307 304 305 307 302 302 301 301 300 299 299 299 300 299 298 299 300 299 298 297 296 296 297 294 294 292 292 292 293 293 292 292 291 291 290 290 289 288 288 286 282 283 285 283
310 310 309 309 309 309 308 308 308 309 309 309 309 310 309 310 310 310 309 309 310 311 309 310 310 310 309 310 310 312 316 313 313 315 312 310 311 313 311 310 309 307 306 305 303 302 302 302 301 299 299 299 300 298 298 297 296 296 296 297 297 298 295 295 294 293 292 292 291 291 292 291 292 292 291 291 291 291 290 290 289 286 282 279 282
310 309 309 309 309 308 309 308 308 309 309 309 309 310 310 311 310 309 308 309 310 312 309 309 309 310 310 310 310 312 312 312 312 312 312 312 312 313 312 310 309 307 306 305 303 302 301 300 299 299 298 298 298 299 297 297 296 297 295 295 295 296 297 294 295 294 293 292 291 291 291 292 292 293 293 293 293 292 291 291 289 286 286 282 279
310 310 310 309 309 309 308 309 309 309 309 309 310 310 311 311 311 310 309 309 309 311 310 310 310 310 310 311 311 311 312 312 312 312 312 313 312 313 312 310 308 307 306 305 302 301 302 304 299 298 298 298 298 297 297 296 296 296 295 295 295 297 297 297 296 294 294 294 294 292 293 293 293 293 293 294 293 292 291 291 290 289 288 283 282
309 309 308 308 308 308 308 308 309 310 311 310 310 310 311 311 311 311 310 310 311 311 312 312 311 312 312 312 312 312 312 312 313 313 313 313 312 312 311 310 308 307 307 304 301 302 301 299 299 298 298 298 297 297 297 296 295 295 296 295 295 295 295 295 296 295 294 293 291 291 291 291 292 292 293 293 294 293 292 291 290 290 289 287 285
309 309 308 308 308 308 308 308 309 309 310 310 310 310 311 311 312 311 311 311 311 311 313 312 312 312 313 313 313 314 315 314 313 312 313 313 313 312 310 309 307 308 304 303 302 301 300 299 299 299 298 297 297 297 296 295 295 295 295 294 294 294 294 294 294 295 294 292 291 291 292 291 291 291 292 292 292 293 293 290 290 289 288 287 286
309 309 309 308 308 308 308 309 310 310 311 311 310 310 311 311 311 312 311 310 310 311 312 313 313 313 314 312 312 312 313 314 314 313 314 314 313 313 310 310 309 306 304 302 301 300 300 300 298 300 298 297 297 297 297 296 296 295 295 294 294 294 293 294 296 294 294 292 292 291 291 291 291 292 293 292 292 291 291 291 289 289 286 287 285
310 309 309 309 309 308 308 309 309 309 310 310 310 310 311 311 311 312 311 311 311 311 312 313 314 314 314 314 313 313 314 314 313 313 315 314 313 312 311 310 308 306 304 302 301 300 301 299 299 299 297 297 296 297 296 296 296 296 296 295 293 293 293 293 292 293 293 293 292 291 291 292 291 291 290 291 291 291 290 289 287 286 285 285 286
310 310 309 309 309 308 308 308 309 309 310 310 310 310 311 311 311 312 311 311 312 312 313 313 313 314 314 315 315 314 314 314 314 313 314 314 314 312 312 310 308 306 304 302 301 301 300 299 299 297 297 296 296 296 295 295 295 295 295 295 295 293 293 293 293 292 293 293 292 293 292 292 294 292 291 290 292 291 291 288 288 286 285 285 284
311 310 310 309 309 308 308 308 308 309 309 310 310 311 311 311 311 312 312 312 312 312 313 313 313 314 314 314 315 315 314 314 314 314 314 314 314 313 313 310 309 306 303 303 301 301 300 300 298 297 296 296 295 295 295 294 294 294 294 294 294 293 293 293 293 292 292 292 292 292 292 292 294 293 292 292 291 290 289 289 288 286 285 284 285
310 310 309 308 308 307 308 308 309 309 309 310 310 310 311 311 312 312 312 313 313 314 313 314 314 313 314 314 314 315 314 314 315 314 314 314 314 313 312 310 308 306 304 301 302 301 300 299 298 297 296 295 295 295 295 295 294 294 293 294 293 293 293 293 293 292 296 292 292 293 292 292 293 292 292 291 291 290 289 289 288 286 285 285 286
310 309 308 307 308 308 308 308 309 309 310 310 310 311 311 312 312 313 313 313 314 314 314 314 314 314 314 314 314 314 314 314 315 315 315 314 313 312 311 310 307 305 303 301 300 300 300 298 298 297 296 296 295 294 294 295 294 295 294 294 295 294 293 292 293 295 296 292 293 292 292 292 292 292 292 292 290 290 289 289 288 286 285 285 285
310 309 309 308 308 308 308 308 309 310 310 310 311 311 311 311 312 313 313 314 314 314 314 314 314 314 314 314 314 315 315 315 315 316 315 314 313 312 311 309 307 305 302 301 300 299 301 299 298 297 296 295 294 294 294 293 293 294 294 294 294 293 293 293 292 293 293 292 292 292 293 292 292 292 292 291 291 290 291 290 289 287 286 286 286
310 309 308 308 308 308 308 308 308 309 310 311 311 311 311 312 312 312 313 314 315 314 314 314 314 314 314 315 315 316 316 316 315 316 315 314 312 311 310 309 306 303 302 301 299 299 300 299 297 296 296 296 294 292 291 292 292 293 295 294 294 294 293 293 293 292 293 292 292 292 293 292 293 293 293 292 291 291 290 289 288 287 287 287 286
309 309 309 308 308 308 309 309 309 309 309 310 311 311 311 312 312 313 313 314 315 314 314 314 314 314 315 315 316 316 316 316 317 315 314 313 312 311 310 308 306 304 303 301 300 299 299 297 296 295 294 294 292 292 292 291 292 292 293 294 294 296 293 293 292 292 292 292 291 291 291 291 295 298 297 296 294 295 292 289 288 287 288 288 287
310 310 310 310 311 311 309 309 309 309 309 310 311 311 311 311 312 312 313 314 314 314 314 314 314 315 316 316 316 316 316 316 315 315 314 313 311 311 309 307 305 303 302 301 300 299 298 296 295 293 293 292 292 292 297 297 297 294 292 292 293 293 294 293 293 292 292 292 291 291 293 298 299 300 300 298 296 294 291 291 290 288 288 288 287
311 311 310 310 311 311 310 310 310 309 309 309 310 311 312 312 312 312 313 314 314 314 314 314 314 315 316 316 316 315 315 315 316 315 314 312 311 311 309 307 305 302 301 301 299 298 297 295 294 293 292 292 292 292 298 295 295 297 293 292 293 293 293 292 293 292 292 293 292 292 291 294 297 298 300 296 293 292 291 291 291 292 292 291 288
311 311 311 311 311 310 310 310 310 310 310 310 310 311 311 311 312 313 313 314 314 314 314 314 315 315 315 315 316 315 315 315 315 315 314 312 311 310 308 307 304 302 300 300 298 297 296 295 294 293 292 292 291 295 295 294 294 294 296 293 291 292 293 292 292 292 293 293 293 293 294 292 293 294 295 294 293 291 291 291 291 291 292 292 291
311 312 312 312 312 312 311 311 311 311 311 311 311 311 311 312 312 313 314 313 313 313 314 314 315 315 315 315 315 315 315 315 315 315 314 311 310 309 308 306 304 302 300 299 298 297 296 295 294 292 291 292 291 295 294 294 293 293 294 293 288 290 291 292 291 292 292 292 293 294 294 294 291 297 297 289 286 287 290 291 291 292 291 291 290
312 313 313 313 313 313 313 313 313 313 313 313 313 312 312 313 313 314 313 313 313 313 314 314 315 315 315 315 315 315 315 315 315 315 313 311 309 309 308 307 305 302 300 299 298 297 296 294 293 292 292 291 290 295 293 292 291 291 291 293 288 288 289 289 290 290 291 291 292 293 293 294 293 295 296 289 286 285 285 286 287 286 285 288 289
311 312 313 314 314 313 313 313 313 314 314 314 313 313 313 313 313 312 313 313 313 313 313 314 314 315 315 315 315 315 315 315 315 314 312 311 310 309 308 306 304 301 300 299 297 296 295 296 294 293 292 291 290 294 292 290 290 290 289 292 288 289 288 288 288 289 290 291 292 292 293 293 293 292 292 291 287 286 286 286 287 286 286 286 287
312 313 314 314 314 314 314 314 315 315 314 314 314 314 313 313 313 313 313 313 313 313 313 314 314 315 315 315 315 315 315 315 314 313 312 311 310 309 308 307 304 302 301 300 299 298 297 296 295 293 292 291 290 293 291 290 290 290 290 291 287 287 287 289 289 290 291 292 292 292 292 292 292 291 293 293 293 290 287 287 287 286 286 287 287
313 315 315 316 316 316 316 316 315 315 315 314 315 314 314 313 312 313 313 313 313 312 313 314 314 315 315 315 315 315 315 315 314 313 312 311 310 309 308 306 303 300 300 299 298 298 298 296 295 294 292 292 290 292 291 290 290 290 290 288 288 289 289 289 289 290 291 291 291 291 291 292 291 290 292 291 291 293 289 288 287 286 286 286 287
314 314 315 315 316 317 317 317 316 315 316 316 315 315 314 313 313 313 312 312 312 312 313 314 314 315 315 316 316 315 315 315 314 313 313 312 312 310 308 306 303 301 300 300 299 297 297 297 295 294 293 293 291 291 292 290 289 290 290 285 287 286 286 288 289 290 290 290 290 297 297 292 291 290 291 291 290 292 289 288 286 286 286 286 287
314 314 314 315 315 316 317 317 315 315 316 318 317 318 317 313 313 313 312 312 312 313 314 314 315 315 316 316 316 316 316 315 314 314 314 313 312 310 307 305 304 303 301 300 300 297 297 296 296 295 298 295 292 291 292 290 290 289 291 286 285 285 285 286 287 289 289 289 289 294 298 298 293 292 290 290 290 292 289 288 287 286 286 286 288
314 314 315 314 316 317 315 315 315 316 318 318 317 316 315 314 314 313 312 312 313 314 315 315 316 317 317 316 316 315 315 315 315 315 314 314 311 307 304 303 303 302 300 299 299 298 297 296 295 296 296 298 293 291 293 291 290 289 290 289 285 285 285 285 285 287 288 289 289 289 294 294 293 292 290 289 289 290 291 289 288 286 286 286 289
312 312 313 314 315 316 316 316 317 318 318 318 317 315 314 315 314 313 312 313 315 315 316 316 316 315 315 315 315 316 316 316 316 316 314 312 309 307 303 302 301 300 299 298 298 298 297 296 295 295 294 296 295 292 294 291 290 290 289 290 285 285 285 285 285 289 290 289 289 289 290 293 292 292 291 290 290 290 290 291 289 288 289 290 291
311 311 312 313 314 314 315 315 316 319 319 317 316 314 314 314 313 312 314 315 316 315 315 315 314 315 315 315 315 316 316 317 316 314 311 309 306 305 303 302 301 300 299 298 297 297 296 296 294 294 294 294 297 299 292 293 291 290 289 290 286 287 287 285 285 286 287 287 287 288 289 290 291 291 291 291 291 291 290 292 292 290 289 289 291
309 309 311 313 312 313 314 315 315 316 317 316 314 313 313 312 312 313 315 316 315 315 314 314 314 314 314 314 315 315 315 316 315 313 311 306 303 303 303 303 300 300 299 298 297 296 296 295 294 293 294 294 294 298 298 294 292 290 290 289 289 287 287 289 285 285 286 287 287 288 288 291 290 290 290 290 290 290 291 292 290 289 289 289 290
310 312 311 312 313 312 313 311 313 314 315 315 314 313 312 311 312 315 315 314 313 313 313 313 313 313 313 314 314 315 315 315 313 310 308 305 303 303 303 302 300 300 299 298 296 295 295 294 294 294 293 293 294 293 297 296 294 290 290 289 289 288 287 288 289 286 287 286 285 285 287 287 289 290 290 290 290 290 291 289 289 289 289 289 291
308 309 309 310 313 312 311 309 309 312 314 315 315 314 312 311 314 315 313 313 313 312 312 312 312 313 313 314 314 314 314 313 311 308 306 304 303 302 302 301 300 299 299 298 297 295 295 295 294 294 294 294 293 293 293 295 294 293 290 289 288 288 288 288 289 289 290 288 287 286 286 287 288 289 289 289 289 290 289 289 289 288 291 291 291
306 306 307 310 310 309 309 309 307 308 311 313 314 314 312 313 315 314 313 313 312 312 312 313 313 313 313 313 312 309 309 309 307 307 307 305 304 303 303 300 300 299 299 298 297 295 295 295 294 295 295 294 293 292 293 293 295 296 294 290 289 289 290 290 290 289 289 289 288 288 288 288 289 289 290 290 290 290 289 289 289 290 291 290 289
307 306 307 308 308 309 308 308 309 306 308 310 312 313 315 315 313 311 311 313 313 313 313 312 311 309 308 308 308 306 305 304 305 304 305 304 304 303 303 300 299 299 298 297 297 296 296 295 295 295 295 294 293 292 292 292 292 294 295 295 293 291 291 291 291 290 290 289 289 289 289 288 289 289 289 290 290 290 290 289 289 290 291 291 288
306 305 306 307 308 308 308 307 309 308 308 310 311 313 314 313 311 311 312 312 312 311 311 309 307 305 305 305 306 305 305 303 303 304 303 303 303 303 302 301 299 299 298 297 297 296 296 296 296 296 295 294 293 292 292 292 292 292 294 294 294 293 292 291 290 289 289 290 290 290 289 290 290 290 289 288 287 287 287 287 287 288 287 288 289
308 306 306 308 307 308 307 308 308 307 307 308 308 308 308 309 310 309 311 311 308 305 306 304 303 304 304 304 305 305 304 303 303 303 303 304 303 302 302 302 302 301 301 301 299 298 298 298 298 297 296 295 294 294 295 293 294 292 293 294 293 293 293 292 293 291 292 290 288 288 287 287 286 286 286 286 286 286 286 287 286 286 287 285 285
307 307 306 308 309 309 308 308 307 306 307 307 306 306 307 307 307 307 308 308 306 304 303 302 302 303 302 303 303 303 303 303 302 302 302 301 298 299 300 302 302 300 296 295 296 300 301 299 298 298 299 298 298 299 295 293 292 292 291 292 293 293 292 293 292 290 291 288 287 286 286 285 285 285 285 285 286 286 286 286 285 286 286 285 285
304 306 307 308 308 310 309 309 307 307 307 307 307 306 307 307 306 306 306 305 305 305 302 301 303 303 302 303 302 302 302 303 302 301 301 301 301 300 295 294 296 298 295 294 293 293 294 295 298 299 297 294 294 293 293 292 292 292 292 291 291 291 291 291 290 289 288 288 287 286 286 285 285 285 285 286 286 286 286 286 285 285 285 285 286
Wind_Speed
2 2 3 4 4 4 4 4 4 4 3 5 6 6 6 8 8 7 4 6 6 5 4 4 4 3 3 3 2 2 2 3 5 5 5 5 6 6 6 6 6 7 6 7 7 6 6 5 6 6 6 6 7 7 6 7 6 5 5 6 8 9 8 6 5 3 5 8 6 7 8 8 10 11 11 10 10 7 6 7 7 8 8 8 7
3 2 2 3 3 4 4 4 4 6 2 3 7 6 7 5 8 6 2 3 6 5 4 3 2 3 3 2 3 3 4 4 3 5 4 5 6 6 5 6 7 7 6 6 6 6 6 6 6 6 6 6 6 6 7 7 7 7 5 7 7 8 7 6 6 2 2 3 4 3 4 4 7 9 10 10 9 8 7 8 8 9 9 8 6
3 2 2 3 4 4 5 4 4 5 5 4 3 5 6 6 5 7 6 5 4 3 4 4 2 2 3 2 2 2 2 2 2 2 3 7 6 6 5 6 7 6 6 6 6 6 6 6 6 6 7 6 7 8 7 8 7 7 7 5 6 5 6 7 9 6 2 1 1 3 1 1 0 5 6 8 8 8 7 9 9 9 10 8 6
6 5 5 4 5 5 4 4 4 3 4 3 4 5 4 6 5 5 6 3 4 3 3 4 5 4 4 5 3 4 3 2 4 4 6 7 7 5 6 5 6 6 6 7 6 6 6 7 6 6 6 6 6 7 7 8 7 7 7 6 3 8 7 7 8 7 4 1 1 2 1 1 2 5 3 2 4 7 9 8 7 7 8 8 7
8 5 4 5 6 7 8 6 5 5 5 5 5 6 5 7 7 7 6 6 4 4 4 5 6 5 4 4 4 4 3 4 4 5 5 4 4 6 5 4 6 7 7 7 6 7 6 6 6 6 6 5 5 6 6 6 6 6 6 6 7 5 6 6 8 8 10 7 3 3 2 3 0 2 2 2 3 4 7 8 7 6 7 7 7
11 10 9 8 8 6 4 5 6 5 5 5 5 5 6 5 5 4 4 4 4 4 4 4 4 6 4 5 4 4 4 2 4 3 4 4 4 2 5 5 6 7 6 6 6 6 7 6 6 6 6 6 6 6 6 7 8 7 6 5 7 6 6 7 7 7 8 10 9 6 2 3 1 2 1 1 2 1 2 4 7 5 4 6 6
5 5 5 7 6 7 6 7 6 7 6 4 3 4 3 5 6 5 6 5 3 4 3 4 5 4 4 5 5 5 5 1 1 1 4 4 4 5 4 5 6 7 6 6 6 5 6 6 6 6 6 6 5 6 6 7 6 6 5 7 6 4 5 7 5 3 5 8 7 7 8 6 3 3 3 1 2 2 1 3 3 6 2 4 6
9 9 9 8 9 10 11 8 7 8 5 4 4 3 5 4 6 6 4 5 4 5 4 4 6 4 5 4 4 5 4 3 3 4 3 4 6 5 5 5 6 6 6 6 5 5 5 6 6 6 6 6 5 6 6 5 6 5 6 6 5 5 6 7 7 5 6 3 4 6 7 7 7 7 4 3 2 2 4 3 1 7 3 2 5
11 10 11 10 10 9 8 8 6 5 5 6 5 5 4 3 4 4 6 4 4 5 5 4 5 5 5 5 3 2 2 1 2 3 5 4 6 4 6 5 5 5 5 5 5 5 5 5 6 7 6 5 5 5 5 6 7 7 7 7 7 7 6 5 7 6 6 4 3 5 5 6 6 6 5 4 4 3 3 5 8 2 1 1 3
10 12 12 10 9 9 8 6 6 6 6 5 4 4 4 4 5 5 5 4 4 5 4 4 3 4 5 4 5 3 2 3 4 5 5 4 6 5 4 5 5 5 5 5 5 5 6 5 6 7 6 5 4 5 5 6 6 6 6 6 6 8 6 6 7 6 6 6 6 4 5 4 5 5 6 4 4 5 2 4 6 9 8 4 4
10 10 9 8 6 7 7 9 8 4 4 4 4 5 4 5 5 6 5 4 4 5 5 4 4 4 5 5 5 5 3 4 4 4 5 5 5 4 4 4 4 5 4 3 5 5 5 4 5 6 5 4 5 5 5 5 4 5 5 6 7 7 6 6 7 5 5 5 5 5 5 5 5 5 3 3 3 2 2 2 4 4 5 7 3
10 9 8 7 6 5 5 7 7 7 4 4 4 4 4 5 5 5 4 4 4 4 4 4 4 3 3 4 5 5 5 4 5 5 5 5 5 5 4 5 4 4 4 4 4 5 5 5 5 6 6 5 5 4 4 4 4 4 5 5 6 5 5 5 6 7 6 5 6 5 5 4 4 4 2 2 3 2 1 2 3 4 3 3 6
11 10 9 9 10 10 8 8 7 7 7 7 6 5 4 5 5 6 4 4 5 5 5 5 4 4 5 5 3 4 4 5 5 4 5 6 5 5 5 5 4 4 3 4 4 4 4 5 5 6 6 4 4 5 4 4 4 5 5 6 5 6 6 6 6 6 6 7 6 4 4 4 4 2 3 3 2 3 2 4 2 1 3 5 3
11 11 11 11 11 10 10 10 9 8 8 8 7 5 5 5 5 6 6 4 4 4 5 5 5 5 4 5 5 4 5 4 5 5 5 5 6 6 6 6 6 5 5 4 4 4 3 4 5 6 6 5 4 4 5 4 4 4 5 6 6 5 6 7 7 7 6 6 5 6 5 4 3 3 4 3 3 3 3 4 4 1 1 4 3
10 11 12 12 12 12 11 10 9 9 9 8 6 6 5 5 6 6 5 4 5 6 5 5 5 4 4 4 4 3 4 4 4 3 5 5 5 6 5 5 6 5 6 5 4 4 5 5 5 6 6 5 4 4 4 5 4 4 4 5 4 4 6 6 6 7 7 7 6 6 4 4 3 3 4 4 3 4 4 3 6 9 7 4 6
10 11 11 11 11 10 9 9 9 9 9 8 8 6 6 6 6 6 7 7 6 5 5 6 6 5 4 4 5 4 2 3 2 2 4 5 5 6 6 6 5 6 5 5 5 5 5 6 5 6 6 5 4 4 4 4 5 5 4 4 4 2 6 7 5 6 6 7 7 5 5 4 3 3 4 4 4 3 4 3 3 3 3 6 4
11 11 11 11 9 9 11 10 9 9 9 10 9 8 8 7 6 6 5 4 6 6 7 5 5 4 5 4 4 4 4 4 5 5 5 5 5 5 6 6 6 6 6 5 5 5 5 6 6 5 6 5 5 4 5 5 5 4 4 5 5 3 5 5 5 6 4 5 5 6 6 4 3 3 3 3 4 3 2 2 2 2 1 1 4
14 12 11 12 13 13 11 10 12 12 11 10 10 8 7 8 7 7 5 6 5 5 5 5 5 5 4 4 4 5 5 5 5 5 3 4 4 5 5 6 7 6 6 5 5 6 5 5 6 5 5 6 5 4 4 5 5 5 4 4 3 4 5 3 3 5 5 4 4 4 4 4 2 3 3 2 3 3 2 1 0 1 2 2 2
8 9 9 10 10 11 11 12 12 10 10 11 9 8 7 6 7 8 8 7 7 6 5 4 5 5 5 6 6 5 5 5 4 2 3 5 6 6 7 6 6 6 6 6 6 6 5 5 5 6 5 6 5 5 4 4 5 5 4 4 2 3 5 4 3 4 4 4 5 5 3 4 2 3 3 2 2 2 1 1 1 1 2 2 3
12 11 11 12 12 13 13 12 12 13 12 10 9 7 8 8 7 7 6 6 5 6 5 6 6 5 5 3 3 4 4 4 3 4 5 6 6 7 7 7 8 6 7 7 7 7 6 6 5 6 6 6 6 5 4 5 4 5 5 5 3 4 5 5 4 3 3 4 5 5 4 4 3 2 2 2 1 1 2 0 1 2 2 2 2
12 13 12 13 12 12 11 11 11 9 8 8 9 10 9 7 7 8 9 7 7 7 6 6 5 5 4 5 5 4 5 5 4 5 6 6 6 6 7 7 7 7 7 8 7 8 7 7 7 6 6 6 6 5 4 5 5 5 3 4 4 4 5 3 4 4 3 4 5 5 4 3 2 3 2 0 1 1 1 0 1 1 2 2 2
13 13 12 12 11 11 10 8 7 8 9 10 9 7 8 8 9 8 7 8 8 7 7 6 5 5 6 6 6 5 5 4 5 6 6 6 6 6 6 7 8 7 8 8 8 7 7 7 7 6 6 6 6 6 5 5 5 5 4 3 4 4 4 4 4 4 4 3 4 5 4 3 2 2 1 1 2 1 1 1 1 1 2 3 2
14 13 12 11 12 12 12 13 13 13 12 11 9 9 9 9 8 8 9 9 8 8 7 6 6 6 6 6 5 5 5 5 6 5 6 6 6 6 6 8 8 7 6 7 8 7 7 7 7 6 6 6 6 6 5 5 5 6 6 5 4 5 6 5 4 4 4 4 4 4 4 3 2 2 2 2 2 2 1 2 3 1 2 2 2
7 8 8 10 9 9 9 11 11 10 10 11 11 10 8 8 9 8 9 10 8 7 7 6 6 6 6 5 6 5 5 6 6 6 7 7 6 6 7 7 7 6 7 6 7 7 6 7 7 7 6 6 6 6 6 5 6 6 6 6 5 5 5 5 5 5 4 5 5 4 4 4 3 3 4 3 2 1 2 2 3 2 2 3 3
9 10 10 9 9 10 12 12 12 12 11 10 10 10 10 9 8 9 9 9 8 7 6 7 7 7 6 6 6 5 5 6 6 5 7 6 7 7 6 8 7 8 7 7 6 6 7 8 7 8 7 7 7 7 6 6 5 5 6 5 5 5 5 5 5 5 4 5 5 5 4 4 4 4 4 3 3 3 2 2 3 3 2 2 3
11 10 10 12 13 12 11 11 11 12 12 11 11 10 10 9 10 8 8 8 8 6 7 7 7 7 7 7 7 6 7 7 7 6 7 7 7 7 8 7 8 9 8 7 9 7 7 9 8 8 8 7 7 7 7 7 6 5 5 5 5 5 5 5 5 5 5 5 5 5 4 4 4 5 5 4 3 3 3 3 4 3 2 2 3
13 13 12 9 9 12 14 13 13 12 12 11 12 11 11 10 10 9 8 8 8 7 7 7 7 7 7 8 8 8 7 7 7 7 6 6 7 7 8 9 8 9 9 9 8 8 6 8 8 7 8 8 7 6 6 6 6 6 6 6 5 5 5 5 5 5 5 5 5 5 5 5 5 6 5 5 3 3 3 4 3 3 3 3 4
6 7 10 14 14 13 12 13 12 12 11 10 11 11 12 11 12 10 9 8 7 7 8 8 7 8 8 9 8 8 7 8 7 6 6 7 7 7 8 7 8 9 9 10 10 9 8 7 7 8 7 6 7 6 6 6 6 6 6 6 6 6 6 5 5 5 5 5 5 5 5 5 6 6 6 4 3 3 2 3 3 2 2 3 4
11 12 12 12 12 12 13 12 12 11 12 12 11 10 9 9 9 9 8 10 8 8 8 8 8 9 10 9 8 7 6 6 6 6 6 7 7 7 7 7 8 8 7 9 8 9 8 7 6 6 7 6 7 7 6 7 7 6 6 6 6 6 6 6 5 5 5 5 4 4 4 5 6 8 8 5 5 4 3 3 4 2 3 3 4
12 13 12 10 9 7 8 10 10 12 13 12 11 11 11 11 11 10 10 9 8 9 9 9 9 10 9 8 8 7 7 6 6 7 7 7 7 7 7 8 8 8 8 7 8 8 8 9 9 7 6 6 6 5 7 10 7 7 7 5 5 5 5 5 6 6 5 5 5 4 4 7 8 9 7 8 6 4 4 4 4 4 4 4 4
12 11 11 12 14 15 12 11 11 12 13 13 13 12 12 11 11 10 11 10 9 10 9 9 11 10 9 8 7 8 7 7 8 7 6 7 8 7 7 8 8 8 9 8 8 9 9 8 9 9 9 7 6 6 10 10 10 9 6 6 6 5 4 5 5 6 6 6 5 4 4 5 6 3 5 8 6 6 5 6 8 8 7 5 5
12 12 12 13 14 14 15 16 15 14 13 13 12 12 11 12 12 11 11 9 9 9 10 10 11 9 8 8 8 7 7 8 7 8 7 7 7 7 8 8 8 9 8 8 9 9 9 8 7 8 8 8 7 8 11 11 10 9 8 6 6 6 5 5 5 5 5 4 5 4 4 3 3 5 6 6 5 5 6 7 8 8 9 9 8
12 12 13 14 15 16 15 15 13 13 14 14 14 12 13 13 12 13 9 9 10 10 10 11 10 9 9 9 8 8 8 8 8 7 6 7 8 8 9 9 11 9 8 10 10 9 9 8 8 9 9 7 7 9 11 12 10 10 9 7 5 5 6 6 5 5 4 4 4 4 5 4 4 9 7 6 5 5 5 7 7 8 9 9 7
9 11 13 14 12 11 12 15 17 16 17 15 13 14 14 13 13 10 10 10 11 11 10 11 11 10 10 10 9 9 9 10 8 7 7 8 9 11 10 9 7 8 10 9 9 10 9 10 9 9 9 8 8 9 12 12 11 10 9 7 5 6 5 5 5 5 5 5 5 5 5 6 5 5 5 6 5 5 4 4 4 4 5 7 8
10 10 9 9 11 12 11 11 12 13 12 10 10 10 9 8 8 9 10 10 10 11 11 11 11 11 10 9 9 9 10 9 8 8 8 9 10 9 9 9 9 11 11 11 11 11 9 8 8 8 7 8 7 10 12 12 11 11 9 7 5 4 4 4 4 5 6 6 6 5 6 6 6 5 5 7 6 6 5 4 4 5 5 5 6
11 13 12 11 12 14 14 15 12 9 9 11 13 11 10 10 9 10 9 10 11 11 12 10 11 11 10 10 10 10 10 9 8 8 9 10 10 10 11 9 8 6 3 3 5 6 8 9 9 8 8 8 7 10 12 12 12 11 10 5 5 5 5 5 5 5 5 5 5 5 5 6 6 6 7 11 9 5 4 4 5 5 5 5 6
10 12 13 13 13 13 14 11 9 10 10 12 11 10 11 9 9 9 10 10 10 10 11 11 11 11 11 11 10 11 10 9 9 9 10 11 11 11 9 6 7 8 11 12 10 9 9 9 9 9 10 8 7 10 13 13 12 12 8 5 5 4 4 5 6 5 5 5 5 5 5 6 5 6 8 9 8 6 5 5 5 6 5 6 7
5 4 4 4 6 6 6 9 10 11 12 9 6 8 9 9 10 9 9 9 10 12 12 11 12 12 12 11 10 9 9 10 9 12 13 12 11 8 8 9 12 14 11 8 8 6 6 7 9 10 10 10 8 9 13 13 13 13 9 7 6 5 5 5 6 5 4 5 6 9 7 6 6 7 8 9 7 6 5 5 5 5 6 7 8
7 9 9 8 7 7 7 6 7 9 6 7 7 3 2 7 9 9 9 10 11 12 12 12 13 12 9 7 8 10 11 11 11 13 12 12 11 9 6 8 9 6 6 8 6 8 8 7 9 9 10 11 8 8 13 13 13 13 9 6 6 5 5 6 5 6 4 4 5 5 9 7 7 7 8 8 7 6 5 5 5 4 6 8 8
6 5 5 5 6 8 7 9 10 10 11 12 12 13 14 13 11 8 9 11 13 14 14 12 11 8 9 11 10 11 11 11 13 13 11 10 5 6 8 9 6 6 7 7 9 9 10 9 8 8 8 9 8 7 9 14 13 13 12 7 5 5 7 7 5 5 5 5 5 5 6 7 10 10 10 9 8 8 6 5 4 5 6 10 7
6 6 7 7 8 10 12 13 11 11 10 10 11 11 12 12 11 10 12 14 14 13 11 11 11 9 11 11 10 10 12 12 12 11 6 5 6 7 7 8 8 7 7 8 8 8 8 8 7 8 7 8 7 8 8 13 14 14 13 11 7 8 7 6 6 5 5 6 6 6 5 6 9 10 11 11 9 8 7 5 6 7 8 8 6
4 8 8 7 8 7 7 6 8 12 10 10 11 12 13 12 9 12 15 15 12 11 10 9 9 9 9 9 10 10 10 10 7 5 7 7 5 7 8 9 9 10 10 8 8 8 8 7 6 7 7 8 8 11 8 11 14 14 14 14 8 9 8 7 6 6 6 6 8 6 6 7 9 10 10 11 11 10 9 6 7 11 13 12 8
4 5 7 9 8 9 10 9 8 8 8 8 10 12 11 8 10 15 15 12 10 8 8 8 8 8 8 9 9 10 9 6 6 7 7 7 6 7 7 8 8 7 8 10 8 8 7 7 6 6 6 7 7 7 11 9 12 14 15 15 15 10 10 7 7 7 8 8 6 6 6 8 9 10 10 10 10 10 7 7 11 12 12 12 9
4 5 8 7 7 6 7 4 7 7 7 8 10 11 9 9 13 15 10 6 5 6 6 6 7 8 8 8 8 6 5 5 6 7 7 7 7 7 8 8 9 11 9 8 7 6 7 7 8 7 6 7 6 6 7 10 9 14 15 16 16 16 13 9 8 8 7 7 7 7 7 8 9 9 9 8 8 8 7 10 11 12 11 9 5
3 1 3 5 8 8 3 3 4 7 7 9 9 10 9 11 14 10 7 6 6 5 5 6 8 8 7 6 4 5 6 6 7 8 8 7 8 8 8 7 8 7 8 9 8 7 8 8 6 7 7 6 6 6 6 8 12 12 15 16 16 16 15 13 9 7 7 8 9 10 9 9 8 8 8 7 7 9 12 12 11 11 9 4 5
1 1 4 4 2 2 4 4 3 4 6 7 8 8 10 13 11 5 5 5 5 6 6 8 7 7 6 4 4 3 4 5 6 6 7 8 9 9 8 8 8 7 8 8 7 7 7 6 7 7 7 5 5 6 7 7 6 9 10 14 15 14 14 14 13 11 12 12 12 11 10 9 8 7 5 5 5 6 8 10 11 11 6 5 5
0 1 3 4 4 3 4 4 5 4 6 6 7 7 10 5 2 4 6 6 6 7 8 6 5 3 2 4 5 5 5 5 5 5 5 6 7 7 7 8 8 8 7 6 6 7 7 7 8 8 7 4 5 6 7 6 7 7 7 7 8 10 13 11 9 9 9 9 9 8 7 7 6 8 8 7 8 8 7 7 5 5 5 6 6
4 5 4 2 1 2 3 4 4 4 4 6 7 8 7 5 3 4 5 5 5 5 5 3 3 3 3 4 4 6 6 5 5 6 6 6 5 6 7 9 10 10 9 8 7 7 8 9 9 8 5 4 6 6 7 9 9 7 7 7 7 6 6 7 7 9 9 6 5 4 6 5 4 5 5 5 5 5 6 6 6 5 5 4 4
8 4 5 4 3 4 3 4 4 4 3 3 4 5 6 5 4 3 1 4 4 3 3 3 3 4 4 3 4 5 5 6 5 5 5 5 8 8 8 6 5 5 8 10 10 8 8 8 7 7 7 7 6 8 12 10 10 11 11 8 8 9 8 7 11 11 5 4 5 5 6 5 6 7 6 5 6 5 6 5 6 5 3 3 4
6 4 4 5 5 6 5 6 5 4 4 5 5 6 6 6 5 4 3 3 5 5 4 4 3 4 4 4 4 5 5 5 5 6 5 3 2 4 5 6 7 7 9 7 5 8 7 6 7 7 7 8 9 9 5 11 15 16 16 16 14 12 12 10 8 9 7 5 6 6 7 7 7 6 6 7 7 6 5 5 4 4 4 5 6
10 10 11 8 6 6 7 7 6 5 7 7 7 7 6 5 6 5 6 5 4 4 4 3 2 1 3 4 4 4 5 5 5 6 5 6 5 4 5 6 5 3 5 8 7 5 1 5 7 6 6 10 10 7 9 13 14 16 16 16 16 15 13 13 8 7 5 7 7 8 6 6 7 6 7 8 7 6 6 5 6 4 4 6 6
Wind_Direction
210 202 190 176 149 140 136 136 129 104 115 136 127 123 129 138 130 132 156 136 125 114 104 109 92 55 48 57 73 343 4 39 48 30 50 50 47 48 54 60 65 65 60 63 62 66 61 53 48 36 30 37 40 38 28 26 23 22 25 34 41 51 31 10 15 347 93 79 64 68 61 52 65 58 54 48 44 39 39 41 40 41 36 35 33
109 121 144 135 145 141 137 142 145 133 158 161 140 146 138 148 137 145 164 143 139 149 140 109 143 157 148 129 107 24 25 33 22 27 48 53 48 47 54 67 68 66 66 67 67 69 65 55 49 38 34 36 42 33 37 34 26 23 5 48 33 59 50 14 356 13 39 129 141 105 84 57 66 58 54 48 44 40 35 44 38 37 35 30 27
165 164 168 179 168 159 157 167 176 158 157 143 118 114 126 137 147 147 160 164 154 146 126 133 106 92 110 177 128 86 49 154 124 59 64 65 50 48 55 64 72 67 65 72 74 65 69 67 54 49 40 37 38 34 32 35 28 23 20 46 49 42 68 34 25 23 119 50 152 103 8 70 108 34 52 45 42 41 39 44 39 39 33 30 23
183 182 188 190 183 168 165 173 169 142 140 124 132 132 142 143 152 155 163 164 153 157 132 109 107 102 84 117 82 105 105 81 83 67 63 59 49 48 49 58 72 75 69 72 73 71 71 73 67 55 48 41 46 45 35 37 28 27 21 27 29 67 31 36 30 31 57 124 28 28 143 124 79 20 12 28 21 45 45 42 41 37 35 29 24
179 184 191 184 183 185 183 179 156 160 165 163 165 154 159 159 163 167 168 175 170 159 140 125 100 73 78 68 59 49 38 35 54 48 46 69 67 46 36 49 69 73 69 71 78 77 73 75 73 66 62 47 50 51 48 42 40 36 30 41 33 77 69 55 37 31 42 31 120 116 22 36 286 273 8 322 350 42 46 45 41 38 36 34 27
178 184 186 187 187 184 182 170 170 171 176 187 178 162 140 144 149 175 165 158 166 146 152 130 116 121 100 97 80 68 66 47 91 88 56 48 70 57 52 45 69 74 68 72 76 81 79 79 80 76 68 56 52 53 46 41 36 41 24 48 54 29 92 73 65 39 43 43 49 71 112 139 266 273 103 213 323 67 35 56 40 29 31 37 31
193 175 174 182 193 180 185 185 181 176 195 176 175 158 145 155 150 166 171 164 148 141 155 127 105 107 127 140 144 144 130 240 210 123 96 70 81 74 67 56 61 78 71 73 77 82 86 83 85 82 73 64 55 54 47 40 37 38 36 46 42 53 55 79 54 20 40 42 40 51 61 52 41 81 58 254 7 320 358 359 32 13 22 39 34
181 184 188 190 186 184 185 190 181 186 173 164 167 159 151 169 147 155 168 160 162 146 152 145 131 124 115 115 125 140 155 171 116 102 105 101 81 68 70 60 59 67 79 75 82 89 91 83 85 79 75 68 67 56 56 44 49 39 46 46 53 50 54 78 77 27 72 55 37 53 56 55 48 52 51 90 134 300 315 349 96 355 333 72 38
183 183 190 189 190 192 183 183 188 168 165 170 177 178 160 155 136 137 150 155 160 164 154 147 142 150 144 133 110 116 144 100 99 93 93 90 89 69 75 67 66 62 64 75 73 79 86 90 86 82 75 69 72 63 56 54 57 61 53 50 52 45 51 62 74 53 52 58 49 39 53 52 46 47 50 51 65 22 296 358 330 318 247 176 7
192 191 186 189 188 187 188 170 163 183 183 177 170 146 142 140 145 142 149 157 162 168 154 142 141 138 129 135 136 141 96 75 98 98 91 97 95 83 84 76 75 70 61 64 80 79 85 84 83 85 86 82 75 80 74 67 62 65 69 76 67 69 45 59 73 63 56 43 44 51 52 27 41 41 34 26 38 56 10 333 340 337 335 321 354
190 191 190 184 179 176 164 171 177 172 182 171 162 158 152 153 154 155 160 151 162 164 155 161 152 171 147 152 150 152 145 124 109 95 102 94 104 96 91 92 77 78 74 64 77 83 86 86 93 89 78 80 80 77 70 78 79 85 82 80 76 83 74 75 77 68 71 67 60 60 70 61 71 70 52 38 72 45 349 303 314 314 294 309 337
185 181 177 159 156 167 168 172 171 178 168 178 179 153 160 160 163 154 138 149 162 160 154 161 163 178 145 151 162 161 158 147 151 156 146 133 134 125 120 101 86 82 81 85 77 80 92 93 96 92 87 85 78 86 76 62 71 82 80 87 89 88 95 91 90 93 84 82 69 69 80 85 77 93 109 89 90 94 49 316 322 312 295 257 301
181 182 170 169 174 174 179 178 175 170 180 184 181 174 166 161 168 158 173 156 162 162 168 170 168 182 166 170 175 150 163 154 156 158 164 148 149 142 143 135 136 110 111 108 109 115 125 116 103 98 91 84 90 83 73 65 70 78 89 86 93 94 98 98 92 83 90 88 91 75 85 78 75 66 66 89 96 115 76 18 336 344 318 314 314
183 179 178 178 180 181 179 177 178 176 182 183 181 175 175 168 176 166 182 169 157 163 168 169 192 189 175 174 174 163 170 165 170 168 179 164 164 166 168 165 165 160 153 152 156 142 123 115 112 105 98 92 90 91 87 88 84 82 84 92 95 106 98 95 95 95 85 87 96 84 69 77 78 65 77 74 69 64 36 27 329 286 228 328 301
181 182 183 183 184 178 179 179 177 177 179 182 178 183 176 171 176 181 157 163 161 173 169 185 194 184 176 173 167 176 172 179 183 176 161 163 174 167 176 167 158 160 155 153 139 137 133 120 113 105 99 89 83 86 83 79 79 82 84 100 90 104 101 102 100 103 98 97 86 98 99 75 80 83 82 71 72 64 69 34 30 2 350 360 341
182 185 187 188 183 178 172 176 178 178 179 178 183 181 182 181 180 182 175 169 170 165 184 187 196 184 170 172 188 181 177 164 178 183 179 174 176 180 177 173 163 147 145 138 155 150 139 123 102 108 108 103 99 103 104 97 95 97 86 93 101 113 105 99 106 98 101 106 105 109 89 79 80 90 79 78 72 71 67 70 59 73 12 329 329
182 186 186 184 178 182 180 175 175 177 180 182 186 182 187 179 176 184 187 167 167 178 181 191 187 174 193 193 177 181 187 197 210 212 195 186 181 186 169 165 152 148 146 147 150 146 138 132 126 124 113 112 104 108 112 105 97 99 108 109 110 104 98 119 119 104 114 110 100 100 105 105 90 84 78 79 77 69 67 72 79 65 164 290 330
185 185 183 180 181 181 181 181 180 183 181 181 185 182 188 177 178 179 179 178 197 182 183 182 182 191 199 204 204 200 202 217 218 236 189 160 167 156 143 150 168 160 149 152 149 149 150 138 134 133 127 118 119 116 114 114 107 97 112 108 135 132 107 105 114 121 125 115 105 98 103 104 108 87 102 103 95 92 81 41 51 231 167 231 257
174 180 176 180 183 183 182 184 185 182 183 183 179 176 181 183 184 180 182 190 188 192 189 186 188 194 197 205 205 212 216 224 228 195 157 163 165 165 168 163 151 154 151 151 155 152 147 146 143 144 138 126 122 125 120 112 113 118 126 127 153 137 123 123 144 132 137 120 121 113 118 117 144 123 114 101 102 113 92 86 281 197 237 219 237
180 181 183 183 185 184 183 178 179 183 184 183 178 174 182 186 183 187 187 185 184 190 188 189 199 197 210 209 219 211 211 211 199 167 173 178 173 165 159 162 170 160 161 159 157 154 158 155 160 152 146 133 131 129 129 122 111 125 144 144 174 140 121 135 131 123 139 133 127 131 151 145 159 133 119 116 116 153 139 151 265 253 264 233 215
183 183 184 184 185 184 183 184 183 176 177 178 180 183 184 181 188 187 185 190 192 198 188 202 186 202 206 210 215 203 214 200 178 185 183 181 168 168 174 168 152 170 162 162 160 161 163 164 158 162 158 152 143 144 150 138 131 132 153 160 161 150 131 139 129 125 134 138 137 143 163 172 160 144 164 195 220 186 159 224 282 257 278 268 244
184 185 182 182 182 180 176 169 165 168 178 185 188 183 181 185 193 187 189 192 194 201 197 202 195 197 203 213 216 210 212 191 183 187 189 177 173 177 168 159 176 173 167 163 164 163 160 160 160 163 168 160 154 153 157 151 142 144 154 166 167 157 150 143 123 138 152 161 146 149 177 181 192 162 184 222 228 197 214 243 268 281 260 280 234
183 181 181 181 179 178 174 172 175 179 184 184 183 190 190 189 189 192 188 202 196 199 200 197 196 198 210 213 210 209 203 197 190 189 188 184 183 176 171 173 178 169 168 167 166 163 159 155 161 165 167 169 162 163 166 162 162 165 169 181 181 169 169 176 160 166 167 151 154 167 186 190 182 228 231 247 228 238 223 263 296 297 292 271 266
182 178 175 176 171 166 165 173 177 180 181 187 189 190 189 190 193 190 197 201 200 201 198 196 200 210 212 210 211 211 195 199 197 196 194 192 184 182 175 180 173 160 167 172 169 161 154 159 164 167 173 169 164 164 168 181 175 174 174 183 182 186 184 188 175 175 166 168 175 183 215 201 200 230 259 268 248 238 270 295 303 314 285 287 276
168 173 170 159 157 170 180 180 181 182 185 186 188 189 190 195 193 195 202 202 201 198 193 201 202 211 214 210 221 211 210 210 212 200 202 191 187 181 180 178 163 169 172 161 165 166 160 164 173 175 175 178 177 169 172 186 193 187 180 177 185 185 191 189 184 181 175 174 175 193 208 196 195 225 268 264 257 278 295 294 304 306 303 293 295
174 167 159 171 178 180 180 182 183 184 185 186 190 190 193 195 199 196 197 201 207 196 198 200 204 210 218 216 221 214 217 219 217 213 204 193 186 185 184 176 171 172 172 173 170 175 175 176 176 178 178 180 177 176 179 184 187 183 180 183 182 185 181 182 187 189 176 177 184 200 201 193 189 210 240 251 254 270 292 299 300 301 299 303 298
174 174 178 169 170 183 186 184 186 184 185 187 187 191 193 196 200 197 198 200 202 195 200 202 208 211 219 222 220 219 216 218 218 215 199 185 188 188 182 180 177 176 171 171 183 179 184 176 176 172 179 178 179 179 182 185 186 182 182 179 182 181 179 180 187 187 187 188 193 197 199 197 205 210 227 233 230 249 264 284 287 293 309 309 308
163 165 167 180 185 184 183 186 185 187 187 189 190 192 193 195 200 198 197 198 199 196 200 205 207 215 221 227 224 222 218 219 216 207 196 190 186 186 191 181 168 176 177 181 180 183 182 169 167 176 177 171 172 178 184 188 189 188 185 191 187 183 181 187 186 196 199 201 200 202 206 204 209 215 213 218 190 240 235 270 269 278 287 291 289
176 183 184 182 181 184 187 186 188 183 185 189 189 193 197 202 202 199 196 203 196 192 203 206 209 216 223 225 227 224 224 221 214 204 193 189 189 190 186 180 181 182 182 183 177 175 160 154 163 173 168 171 179 189 186 184 186 197 192 191 193 187 184 187 194 202 212 223 231 222 225 221 218 227 219 199 191 212 231 267 281 254 276 280 286
182 185 185 178 168 188 201 192 185 188 187 188 191 193 197 197 201 200 201 204 184 199 202 207 213 220 223 224 224 226 223 218 215 210 202 192 188 187 185 185 187 183 178 172 172 171 166 171 165 175 175 178 197 196 198 192 189 186 189 192 183 184 187 187 190 205 223 229 238 240 254 262 266 286 223 180 202 245 255 220 230 230 262 271 280
190 186 177 176 182 184 179 190 198 195 191 190 192 195 196 200 201 199 204 201 190 201 204 208 218 221 222 221 221 227 221 222 220 211 198 188 190 187 189 188 183 179 176 177 171 167 174 174 175 172 182 193 200 205 202 193 196 194 181 189 191 196 183 181 196 198 212 226 239 245 256 270 277 269 170 182 199 224 236 248 254 256 253 244 252
193 189 180 180 186 188 184 188 193 198 195 193 195 195 193 202 201 202 204 192 194 203 206 213 221 220 219 219 222 222 221 227 216 215 199 193 186 188 192 189 182 180 183 175 178 183 177 175 179 179 189 195 200 209 196 188 191 193 188 189 192 192 191 195 196 203 216 223 243 260 253 238 233 207 191 195 206 221 234 245 255 262 265 269 259
193 187 187 187 189 192 191 186 187 194 197 201 194 189 197 202 199 206 191 187 198 203 208 216 220 218 220 219 218 218 224 225 221 212 193 183 191 195 195 189 194 186 169 183 189 177 182 178 180 184 195 200 200 208 190 187 189 191 195 181 191 188 193 205 201 205 208 217 225 241 259 244 231 238 216 193 198 228 241 246 264 277 283 275 271
200 196 193 193 189 189 191 191 192 193 198 198 192 194 200 199 200 192 185 196 199 206 208 216 217 218 220 218 217 216 224 226 215 199 190 193 195 204 201 194 178 171 184 190 183 185 180 181 189 191 195 197 200 205 191 190 189 190 194 184 186 188 198 204 206 206 208 215 217 220 238 262 236 234 208 194 200 219 228 256 267 270 273 297 305
197 199 200 191 190 190 192 196 202 200 196 185 197 205 202 197 190 186 195 196 203 205 211 216 218 220 218 216 214 215 223 224 208 197 196 204 206 209 199 193 186 186 186 188 185 187 188 183 189 192 192 199 210 200 193 192 190 189 192 187 179 189 193 209 212 209 215 216 219 219 227 246 253 226 219 201 203 214 215 236 270 278 280 278 281
197 197 197 189 186 188 190 200 198 189 188 190 198 195 189 198 185 193 193 200 202 206 214 216 221 222 218 214 210 215 220 217 202 198 203 212 212 207 205 195 190 171 141 170 202 183 175 188 191 190 194 209 212 201 194 195 191 189 185 183 183 196 205 213 224 215 220 224 223 219 224 236 242 236 233 217 212 188 197 233 261 276 285 280 272
203 196 198 195 190 188 194 188 180 188 188 197 196 185 193 187 183 197 196 202 202 210 216 216 220 222 220 215 210 213 217 211 202 200 211 216 214 214 208 172 163 158 187 197 189 184 188 184 185 185 197 210 206 203 197 197 193 185 179 186 187 196 210 222 234 227 224 225 221 218 216 229 236 239 236 221 221 197 211 232 255 275 279 292 287
211 214 209 193 193 190 177 174 179 186 197 193 181 186 185 188 198 198 196 202 203 215 217 216 221 223 220 216 212 209 216 214 201 210 217 220 219 214 195 171 180 192 193 172 186 173 187 197 188 196 197 199 208 199 195 198 195 187 184 185 191 195 222 232 249 242 232 234 237 241 226 211 225 235 235 228 217 195 217 234 250 274 292 299 296
191 188 189 186 185 174 169 163 166 189 162 122 121 120 250 233 212 201 199 205 210 218 217 218 222 222 218 212 211 213 218 213 210 218 219 220 216 207 172 173 195 178 160 166 142 171 198 191 204 205 202 203 205 197 195 198 197 191 188 184 183 193 220 240 239 256 241 238 254 256 256 227 212 228 232 229 220 198 216 228 238 267 282 285 276
189 190 173 155 143 141 153 170 182 190 169 169 166 178 193 207 217 211 203 212 217 218 219 220 223 209 218 219 215 210 213 211 218 223 220 223 185 152 174 178 163 147 149 156 178 191 195 203 199 197 204 204 198 200 194 198 199 196 194 179 178 184 222 235 232 230 265 262 249 258 253 253 230 229 232 233 228 212 213 223 207 242 267 273 282
178 169 156 156 169 175 183 184 183 191 183 173 176 183 200 208 197 201 216 219 220 220 217 219 223 201 211 218 209 208 213 217 219 223 209 189 179 178 157 157 150 138 159 187 185 190 202 207 200 205 204 206 197 195 201 197 202 200 196 184 184 206 216 218 222 228 225 239 254 245 247 245 238 231 232 237 240 234 228 227 222 236 235 253 283
161 164 162 167 175 189 193 179 188 205 185 170 177 189 203 204 193 208 220 222 220 219 216 216 216 214 212 213 212 215 215 220 209 175 189 192 163 155 161 156 152 173 182 183 184 195 203 207 203 203 208 209 206 202 188 202 203 203 200 196 190 211 203 199 216 230 230 233 234 240 238 241 238 236 236 240 246 251 244 235 243 244 259 266 266
145 173 184 166 175 191 200 191 175 196 193 170 172 191 202 194 201 220 224 221 218 215 214 216 218 220 219 216 216 215 213 202 195 190 176 171 161 154 152 149 155 149 179 193 195 196 199 207 207 212 213 211 202 217 197 199 206 207 206 205 208 210 200 199 205 228 227 234 232 230 244 247 241 240 241 242 247 248 246 242 251 259 261 264 266
212 182 176 174 185 190 204 168 157 177 182 176 177 195 197 193 219 228 226 216 206 208 203 209 220 225 226 225 221 212 196 186 179 165 165 155 155 150 149 157 170 183 184 190 199 193 198 207 214 219 216 213 207 206 215 208 205 208 212 211 213 215 202 206 201 225 227 224 229 228 225 237 240 238 236 238 241 246 253 260 263 265 269 267 251
187 219 186 181 184 194 184 147 165 170 180 181 187 190 191 206 231 228 214 200 200 184 185 210 222 227 227 228 201 189 185 172 168 160 161 161 156 156 159 178 180 188 187 196 196 186 200 208 211 224 226 210 189 195 217 221 218 212 214 217 218 218 218 208 216 231 225 221 224 224 223 225 229 233 235 244 257 258 257 260 267 273 274 261 240
118 127 166 184 151 127 141 164 188 186 182 190 193 182 186 216 228 211 189 181 169 175 194 215 222 224 222 188 178 158 153 158 157 167 167 168 163 169 172 179 189 192 192 196 191 185 201 202 220 229 231 210 178 194 216 220 222 225 224 224 223 224 224 217 219 234 230 227 226 227 226 230 229 231 232 233 237 251 267 274 277 274 256 237 226
351 219 137 133 143 142 156 165 189 210 189 192 190 204 217 226 181 166 164 167 177 190 209 216 216 186 142 146 155 151 136 135 146 146 156 164 170 174 175 175 184 188 192 198 188 187 199 205 224 232 229 188 200 206 219 218 210 217 225 218 213 227 228 227 229 237 239 238 232 224 226 222 226 228 232 241 251 264 270 271 260 252 243 220 215
31 35 16 35 81 170 178 180 215 236 206 193 198 214 226 226 204 171 171 170 187 195 202 202 168 139 143 144 144 147 146 151 163 162 164 174 184 179 180 186 186 188 186 196 193 198 205 208 221 226 214 201 214 214 215 214 208 206 215 211 212 215 211 210 221 230 228 223 221 224 229 235 235 243 237 235 238 236 240 247 253 247 246 233 228
28 18 61 69 64 49 35 24 15 354 0 1 1 1 7 2 357 1 60 135 128 118 112 125 133 127 134 137 143 155 155 156 165 182 194 187 182 188 198 213 224 200 192 186 192 207 212 214 210 208 194 216 221 217 231 211 215 205 204 198 200 209 208 211 222 221 186 174 194 213 228 228 225 235 242 242 245 241 242 221 242 249 222 226 233
22 29 44 73 76 78 63 61 35 29 51 57 49 36 32 34 39 40 45 103 126 115 111 119 126 131 137 136 135 143 148 154 163 178 184 223 251 198 204 203 215 208 221 235 194 205 210 196 204 221 197 205 217 230 222 193 212 213 214 212 215 213 211 216 224 204 194 211 210 224 225 224 232 227 235 244 244 239 246 257 245 225 213 217 221
16 29 23 29 32 58 75 61 42 47 57 60 55 36 37 43 55 51 59 61 66 82 89 92 81 105 145 152 146 148 158 158 166 172 182 195 227 263 240 229 221 215 218 236 247 268 28 179 194 226 229 238 254 250 203 203 206 212 214 217 223 226 221 222 187 139 180 208 220 223 234 226 234 231 238 244 240 234 239 236 249 235 220 222 223